{"data":{"norad_id":62306,"intl_designator":"2024-239F","name":"STARLINK-32633","alt_names":[],"object_type":"PAYLOAD","status":"ACTIVE","operator":null,"country":"US","launch_date":"2024-12-13","launch_site_code":"AFWTR","launch_vehicle":null,"mission":null,"orbit_class":"UNKNOWN","rcs_meters":null,"size_class":null,"mass_kg":null,"dimensions":null,"purposes":["comms"],"wikipedia_slug":null,"has_3d_model":false,"image_url":null,"decayed_at":null,"tle_current":{"epoch":"2026-09-21T14:23:49.406496Z","epoch_age_seconds":82611,"freshness":"FRESH","line1":"1 62306U 24239F   26264.59987739  .00018668  00000+0  56213-3 0  9992","line2":"2 62306  53.1619   0.7439 0001100  83.4474 276.6654 15.34408046 99424","mean_motion":15.34408046,"eccentricity":0.00011,"inclination_deg":53.1619,"raan_deg":0.7439,"arg_perigee_deg":83.4474,"mean_anomaly_deg":276.6654,"bstar":0.00056213,"rev_number":9942,"period_min":93.847265970345,"perigee_km":461.92683610814,"apogee_km":463.43181569984,"semimajor_km":6840.816325904,"source":"CELESTRAK","updated_at":"2026-09-22T09:00:49.571644Z"}}}